Location: Bühlhof
(48.7849°N, 8.6361°E)
Time: 22:16:05
(UTC+00:00)

CZ-3 Stage 3 - Visible Passes

Search period start: 18 April 2026 00:00
Search period end: 28 April 2026 00:00
Orbit: 212 x 9283 km, 30.8° (Epoch: 17 April)

Date Brightness Start Highest point End Pass type
(mag) Time Alt. Az. Time Alt. Az. Time Alt. Az.
18 Apr 4.4 01:48:58 21° S 01:51:51 24° SE 02:05:10 10° ESE visible
19 Apr 5.1 00:31:04 11° SE 00:31:04 11° SE 00:32:42 10° ESE visible
19 Apr 4.7 03:46:04 10° SW 03:55:10 37° S 04:24:05 10° ESE visible
20 Apr 4.3 02:27:29 20° SSW 02:32:00 29° SSE 02:49:26 10° ESE visible
21 Apr 4.6 01:09:08 17° SSE 01:09:52 17° SE 01:17:25 10° ESE visible
22 Apr 4.4 03:05:01 14° SW 03:11:28 32° SSE 03:32:17 10° ESE visible
23 Apr 4.3 01:46:10 21° S 01:48:13 23° SSE 01:59:19 10° ESE visible
24 Apr 5.0 00:27:07 10° SE 00:27:07 10° SE 00:27:18 10° SE visible
24 Apr 4.6 03:42:09 10° SW 03:50:16 32° S 04:13:31 10° SE visible
25 Apr 4.2 02:22:13 19° SSW 02:25:53 26° SSE 02:39:42 10° ESE visible
26 Apr 4.6 01:02:42 16° SSE 01:02:42 16° SSE 01:08:03 10° ESE visible
27 Apr 4.3 02:57:16 13° SW 03:02:47 26° S 03:18:33 10° SE visible
